Weather reports worldwide

Advertisment
Gioia Del Colle, Italy (16312): temperature & dewpoint: 12.10.2018 03:00:00 - 18.10.2018 03:00:00 (CEST)Gioia Del Colle, Italy (16312): wind speed: 12.10.2018 03:00:00 - 18.10.2018 03:00:00 (CEST)Gioia Del Colle, Italy (16312): wind direction: 12.10.2018 03:00:00 - 18.10.2018 03:00:00 (CEST)Gioia Del Colle, Italy (16312): reduced air pressure: 12.10.2018 03:00:00 - 18.10.2018 03:00:00 (CEST)Gioia Del Colle, Italy (16312): visibility: 12.10.2018 03:00:00 - 18.10.2018 03:00:00 (CEST)
Date & Time tt [°C] td [°C] ff [km/h] ff [kn] dd ppp [hPa] vv [km]
18.10.2018 03:00:00 14,0 14,0 2 1 E - 0,3
18.10.2018 02:00:00 14,0 14,0 0 0 N 1016,4 0,2
18.10.2018 01:00:00 15,0 15,0 2 1 W - 0,2
18.10.2018 00:00:00 15,0 15,0 2 1 W - 0,2
17.10.2018 23:00:00 15,0 15,0 4 2 WSW 1016,6 0,2
17.10.2018 22:00:00 17,0 17,0 4 2 ESE - 8
17.10.2018 21:00:00 18,0 17,0 5 3 SSE - 8
17.10.2018 20:00:00 18,0 17,2 4 2 ESE 1015,3 10
17.10.2018 19:00:00 19,0 18,0 8 4 S - 10
17.10.2018 18:00:00 20,0 18,0 8 4 S - 10
17.10.2018 17:00:00 21,0 17,4 15 8 SSE 1015,1 10
17.10.2018 16:00:00 22,0 17,0 15 8 SSE - 10
17.10.2018 15:00:00 23,0 16,0 13 7 S - 10
17.10.2018 14:00:00 22,8 14,6 13 7 SE 1016,0 10
17.10.2018 13:00:00 23,0 14,0 11 6 SSE - 10
17.10.2018 12:00:00 22,0 13,0 16 9 SSE - 10
17.10.2018 11:00:00 21,6 13,5 16 9 SSE 1017,1 10
17.10.2018 10:00:00 20,0 16,0 11 6 SE - 10
17.10.2018 09:00:00 18,0 18,0 9 5 ESE - 8
17.10.2018 08:00:00 16,4 16,1 4 2 N 1017,9 6
17.10.2018 07:00:00 16,0 16,0 9 5 SSE - 3,5
17.10.2018 06:00:00 15,0 15,0 4 2 - - 1,8
17.10.2018 05:00:00 16,2 16,2 2 1 - 1018,0 1,6
17.10.2018 04:00:00 17,0 17,0 9 5 ESE - 2,6
17.10.2018 03:00:00 17,0 17,0 5 3 SSE - 2,0
17.10.2018 02:00:00 16,8 16,8 4 2 SE 1018,9 2,2
17.10.2018 01:00:00 17,0 17,0 8 4 SSE - 2,5
17.10.2018 00:00:00 17,0 17,0 2 1 - - 2,5
16.10.2018 23:00:00 17,2 17,2 4 2 N 1019,4 2,8
16.10.2018 22:00:00 18,0 18,0 4 2 E - 3,5
16.10.2018 21:00:00 18,0 18,0 11 6 SE - 3,2
16.10.2018 20:00:00 18,0 18,0 2 1 S 1019,2 6
16.10.2018 19:00:00 18,0 18,0 9 5 SSE - 6
16.10.2018 18:00:00 19,0 18,0 11 6 SSE - 7
16.10.2018 17:00:00 20,4 17,8 16 9 S 1018,4 7
16.10.2018 16:00:00 20,0 17,0 18 10 S - 7
16.10.2018 15:00:00 21,0 16,0 18 10 SSE - 6
16.10.2018 14:00:00 20,4 16,8 18 10 SSE 1018,9 7
16.10.2018 13:00:00 21,0 20,0 15 8 SSE - 6
16.10.2018 12:00:00 20,0 17,0 21 11 S - 7
16.10.2018 11:00:00 20,2 18,5 24 13 SE 1019,0 7
16.10.2018 10:00:00 19,0 17,0 22 12 SSE - 6
16.10.2018 09:00:00 19,0 19,0 18 10 ESE - 6
16.10.2018 08:00:00 17,0 17,0 13 7 ESE 1018,2 6
16.10.2018 07:00:00 17,0 17,0 13 7 SE - 6
16.10.2018 06:00:00 17,0 17,0 18 10 SE - 3,5
16.10.2018 05:00:00 17,0 17,0 18 10 SE 1018,0 4,0
16.10.2018 04:00:00 17,0 17,0 15 8 SE - 6
16.10.2018 03:00:00 17,0 17,0 15 8 SE - 6
16.10.2018 02:00:00 17,0 17,0 9 5 SSE 1018,6 5
16.10.2018 01:00:00 16,0 16,0 8 4 SE - 5
16.10.2018 00:00:00 16,0 16,0 2 1 - - 5
15.10.2018 23:00:00 16,0 16,0 4 2 N 1018,5 7
15.10.2018 22:00:00 16,0 16,0 4 2 E - 7
15.10.2018 21:00:00 16,0 16,0 5 3 NE - 8
15.10.2018 20:00:00 17,0 16,5 2 1 N 1017,7 9
15.10.2018 19:00:00 18,0 18,0 2 1 - - 9
15.10.2018 18:00:00 19,0 17,0 8 4 S - 9
15.10.2018 17:00:00 19,6 16,8 16 9 ESE 1016,8 9
15.10.2018 16:00:00 20,0 16,0 16 9 SSE - 10
15.10.2018 15:00:00 21,0 13,0 18 10 ESE - 10
15.10.2018 14:00:00 22,2 12,2 21 11 SE 1016,9 10
15.10.2018 13:00:00 22,0 12,0 21 11 SE - 10
15.10.2018 12:00:00 22,0 12,0 22 12 ESE - 10
15.10.2018 11:00:00 20,0 12,0 22 12 SE 1017,6 10
15.10.2018 10:00:00 19,0 14,0 22 12 ESE - 10
15.10.2018 09:00:00 18,0 15,0 15 8 ESE - 10
15.10.2018 08:00:00 16,2 14,6 11 6 E 1016,6 8
15.10.2018 07:00:00 16,0 15,0 13 7 E - 7
15.10.2018 06:00:00 16,0 15,0 15 8 E - 6
15.10.2018 05:00:00 16,2 14,9 11 6 E 1017,0 6
15.10.2018 04:00:00 16,0 15,0 16 9 ESE - 6
15.10.2018 03:00:00 15,0 15,0 2 1 - - 6
15.10.2018 02:00:00 15,0 14,5 9 5 E 1017,6 6
15.10.2018 01:00:00 14,0 14,0 9 5 E - 4,0
15.10.2018 00:00:00 14,0 13,0 9 5 E - 4,0
14.10.2018 23:00:00 13,8 13,3 4 2 N 1018,1 5
14.10.2018 22:00:00 14,0 14,0 2 1 N - 5
14.10.2018 21:00:00 15,0 14,0 4 2 NNE - 6
14.10.2018 20:00:00 15,8 14,2 4 2 NE 1018,1 6
14.10.2018 19:00:00 17,0 15,0 9 5 SSE - 5
14.10.2018 18:00:00 17,0 15,0 5 3 - - 5
14.10.2018 17:00:00 17,8 14,3 13 7 NNE 1017,4 6
14.10.2018 16:00:00 19,0 14,0 15 8 NNE - 7
14.10.2018 15:00:00 21,0 8,0 13 7 S - 9
14.10.2018 14:00:00 20,2 9,5 8 4 S 1018,4 9
14.10.2018 13:00:00 20,0 11,0 8 4 E - 8
14.10.2018 12:00:00 19,0 12,0 4 2 - - 7
14.10.2018 11:00:00 16,6 12,7 5 3 NE 1019,8 7
14.10.2018 10:00:00 15,0 15,0 9 5 NNE - 6
14.10.2018 09:00:00 13,0 13,0 2 1 - - 0,3
14.10.2018 08:00:00 12,0 12,0 4 2 NNW 1020,3 0,1
14.10.2018 07:00:00 12,0 12,0 2 1 - - 0,1
14.10.2018 06:00:00 13,0 13,0 2 1 - - 0,2
14.10.2018 05:00:00 12,4 12,4 4 2 N 1020,7 0,2
14.10.2018 04:00:00 12,0 12,0 2 1 - - 0,4
14.10.2018 03:00:00 12,0 12,0 4 2 NW - 0,2
14.10.2018 02:00:00 12,0 12,0 4 2 NNW 1021,4 0,2
14.10.2018 01:00:00 12,0 12,0 4 2 NW - 0,2
14.10.2018 00:00:00 13,0 13,0 5 3 NNE - 0,2
13.10.2018 23:00:00 13,0 12,4 5 3 NW 1021,3 4,5
13.10.2018 22:00:00 14,0 12,0 4 2 N - 6
13.10.2018 21:00:00 14,0 12,0 5 3 NNE - 10
13.10.2018 20:00:00 15,0 13,2 8 4 N 1020,9 10
13.10.2018 19:00:00 16,0 13,0 8 4 N - 10
13.10.2018 18:00:00 18,0 13,0 11 6 N - 10
13.10.2018 17:00:00 18,4 13,1 15 8 N 1020,2 10
13.10.2018 16:00:00 19,0 13,0 21 11 N - 10
13.10.2018 15:00:00 20,0 14,0 16 9 N - 10
13.10.2018 14:00:00 19,4 13,8 18 10 N 1020,8 10
13.10.2018 13:00:00 19,0 13,0 18 10 N - 8
13.10.2018 12:00:00 19,0 14,0 24 13 N - 8
13.10.2018 11:00:00 17,2 14,8 15 8 NNW 1022,2 7
13.10.2018 10:00:00 16,0 14,0 16 9 NNW - 6
13.10.2018 09:00:00 15,0 13,0 13 7 NNW - 6
13.10.2018 08:00:00 14,0 11,5 15 8 N 1022,6 7
13.10.2018 07:00:00 14,0 10,0 13 7 NNW - 7
13.10.2018 06:00:00 14,0 10,0 9 5 NNW - 7
13.10.2018 05:00:00 14,0 11,5 9 5 N 1022,7 6
13.10.2018 04:00:00 13,0 13,0 8 4 WNW - 2,0
13.10.2018 03:00:00 15,0 15,0 5 3 N - 2,0
13.10.2018 02:00:00 15,0 15,0 8 4 N 1023,5 2,5
13.10.2018 01:00:00 15,0 15,0 15 8 N - 2,5
13.10.2018 00:00:00 15,0 15,0 15 8 N - 2,5
12.10.2018 23:00:00 15,8 15,8 15 8 NNW 1023,4 3,5
12.10.2018 22:00:00 16,0 16,0 11 6 NNW - 5
12.10.2018 21:00:00 16,0 15,0 11 6 N - 5
12.10.2018 20:00:00 16,8 14,3 13 7 N 1022,2 6
12.10.2018 19:00:00 17,0 14,0 16 9 N - 10
12.10.2018 18:00:00 19,0 11,0 18 10 N - 10
12.10.2018 17:00:00 20,2 12,2 21 11 N 1021,7 10
12.10.2018 16:00:00 21,0 12,0 16 9 N - 10
12.10.2018 15:00:00 22,0 13,0 16 9 N - 10
12.10.2018 14:00:00 21,4 12,5 15 8 N 1021,9 10
12.10.2018 13:00:00 21,0 14,0 15 8 NNE - 10
12.10.2018 12:00:00 20,0 14,0 13 7 N - 10
12.10.2018 11:00:00 19,8 13,3 13 7 N 1022,1 8
12.10.2018 10:00:00 19,0 15,0 8 4 N - 7
12.10.2018 09:00:00 15,0 15,0 4 2 - - 6
12.10.2018 08:00:00 13,2 12,9 4 2 NNW 1022,3 6
12.10.2018 07:00:00 13,0 13,0 4 2 NW - 3,2
12.10.2018 06:00:00 14,0 14,0 4 2 NNE - 3,5
12.10.2018 05:00:00 14,0 13,7 5 3 ENE 1021,3 3,0
12.10.2018 04:00:00 15,0 14,0 5 3 N - 3,0
12.10.2018 03:00:00 15,0 15,0 2 1 - - 3,2

tt = temperature
td = dewpoint
ff = wind speed
dd = wind direction
ppp = reduced air pressure
vv = visibility

Next stations